Location: Newark
(39.0622°N, 106.5590°E)
Time: 06:32:24
(UTC+00:00)

Courier 1B - Pass Details

Date: 28 January 2020
Orbit: 962 x 1209 km, 28.3° (Epoch: 27 February)

Event Time Altitude Azimuth Distance (km) Brightness Sun altitude
Rises 20:23:46 0° 253° (WSW) 3,818 - -42.7°
Reaches altitude 10° 20:26:39 10° 245° (WSW) 2,903 - -42.1°
Maximum altitude 20:33:02 36° 181° (S) 1,704 - -40.9°
Exits shadow 20:36:06 26° 140° (SE) 2,079 9.3 -40.3°
Drops below altitude 10° 20:39:46 10° 119° (ESE) 3,062 10.6 -39.6°
Sets 20:42:54 0° 111° (ESE) 4,054 11.4 -39.0°
